GFSSW_sfc_thetae_102.txt.gz
Theta_e
313 312 312 312 311 311 311 311 311 310 310 311 311 312 312 313 312 305 297 301 305 315 319 312 308 306 303 298 298 295 288 285 288 289 291 296 295 299 300 297 298 302 307 313 325
312 312 311 310 311 311 311 311 311 309 310 310 310 311 312 313 304 299 306 315 316 321 308 307 303 303 298 297 298 294 288 288 294 294 295 296 294 294 296 295 297 299 311 322 324
312 312 311 310 310 310 311 311 311 310 309 309 310 310 312 310 295 292 323 322 320 321 304 305 304 303 297 297 297 295 291 293 296 296 295 292 294 297 294 294 298 299 300 319 320
311 311 311 310 310 310 311 311 310 309 309 309 309 310 312 303 283 297 323 323 320 316 304 300 298 293 291 293 297 292 295 298 297 298 296 296 294 295 294 298 303 301 302 318 319
310 310 311 311 311 310 311 310 309 309 308 309 309 309 303 293 292 299 311 306 315 309 302 298 294 293 289 290 291 293 295 297 299 298 297 298 297 296 295 300 303 302 301 310 318
310 311 310 310 309 310 310 310 310 309 308 308 308 309 299 287 300 299 300 300 300 308 304 300 297 296 293 292 291 294 294 296 298 299 298 298 299 296 297 301 300 300 299 300 316
309 310 310 309 309 309 309 309 309 309 307 307 308 304 295 292 301 301 301 299 298 300 303 304 302 299 296 293 297 296 292 294 294 296 296 297 293 294 299 300 299 299 299 299 309
308 308 309 309 309 309 309 308 308 308 307 307 307 302 290 302 304 302 303 299 300 299 298 301 300 298 295 296 295 292 292 287 294 296 297 298 291 296 300 298 297 298 298 299 299
307 307 308 308 308 308 308 307 307 307 308 307 300 298 289 305 300 303 303 298 298 298 298 302 297 292 293 288 286 287 283 286 290 296 296 295 291 295 298 298 297 297 298 299 299
306 306 307 307 307 307 307 306 305 304 304 304 301 291 294 291 303 304 303 300 298 296 295 293 290 287 287 286 281 284 285 285 286 290 293 292 292 294 296 294 295 295 297 298 298
306 306 305 307 307 307 301 293 289 291 298 293 293 292 294 302 305 302 302 300 298 293 287 290 286 281 284 289 290 288 286 286 286 292 290 290 290 290 293 293 292 294 296 297 298
304 304 305 305 305 305 296 288 290 294 286 294 294 295 299 300 295 298 302 296 293 288 289 286 283 287 289 289 289 288 286 285 287 291 290 289 290 290 290 291 293 295 295 297 298
303 303 303 304 303 296 291 292 299 298 288 291 295 294 295 297 293 293 298 295 292 289 287 285 287 290 288 286 286 285 285 283 285 285 284 283 284 286 290 292 296 297 298 298 298
303 303 304 303 296 293 292 296 299 299 281 284 288 292 295 295 290 298 298 295 290 289 290 287 292 288 286 285 286 282 286 286 284 281 276 284 276 282 288 290 293 296 297 296 298
303 303 304 302 295 291 294 296 300 296 269 284 288 297 295 289 291 292 296 292 287 287 289 287 290 287 286 285 287 283 287 285 284 280 278 282 278 282 288 289 292 294 296 298 303
302 302 303 298 294 296 295 295 295 280 270 284 290 288 288 290 290 290 292 292 291 287 287 287 289 290 289 289 288 290 287 286 284 281 275 280 280 280 284 288 294 296 300 303 303
302 302 300 300 289 295 293 292 278 272 283 281 283 287 287 287 288 290 287 285 281 278 279 283 285 288 290 285 288 286 283 278 277 277 277 284 281 285 290 294 297 299 300 301 303
302 302 297 296 295 292 291 284 272 280 279 286 286 289 284 287 288 288 286 284 287 284 280 279 278 284 288 287 284 284 283 278 275 276 277 286 280 285 294 299 301 301 300 301 302
300 291 289 292 294 292 286 275 276 281 283 282 285 283 282 285 286 286 287 288 288 289 280 279 279 286 287 288 288 284 281 287 281 281 279 281 285 290 296 297 299 299 300 300 301
290 289 287 292 293 288 275 277 280 285 284 284 278 283 279 283 283 284 286 289 288 291 292 284 279 288 291 288 288 286 288 281 281 276 275 278 280 282 289 293 298 298 298 301 303
287 282 288 293 292 282 266 276 281 286 287 282 281 280 282 282 284 283 286 290 290 290 292 288 284 284 288 285 283 283 282 285 284 281 277 276 279 289 292 294 297 298 300 301 302
286 274 287 296 281 280 272 280 285 283 286 285 285 284 284 283 281 284 284 287 292 291 288 289 285 281 283 290 293 286 285 284 279 279 281 280 281 297 294 297 299 300 301 303 304
283 283 288 290 272 278 282 282 284 283 284 283 283 286 287 283 277 283 285 291 292 290 288 289 284 280 281 286 288 287 288 287 287 283 280 277 280 293 295 296 300 300 302 303 304
283 276 279 284 287 282 280 281 280 286 286 286 284 285 282 282 284 281 284 290 292 292 295 293 285 281 278 280 284 283 286 287 285 280 280 280 284 290 294 295 299 301 303 305 305
286 277 280 273 282 283 283 282 280 280 285 286 283 284 282 279 280 281 285 287 290 292 292 291 280 283 285 286 287 286 285 286 283 284 281 283 284 291 294 297 299 303 304 304 304
282 276 280 280 281 281 282 281 281 282 284 283 281 283 284 280 282 280 284 285 285 290 289 291 283 285 282 287 286 284 287 287 287 287 287 286 286 295 297 301 300 301 302 302 301
286 285 282 279 279 277 278 282 282 283 284 287 283 282 282 286 288 288 288 289 289 287 286 286 285 281 278 284 283 280 283 286 288 289 289 284 291 296 296 299 298 298 299 298 298

GFSSW_sfc_thetae_105.txt.gz
Theta_e
313 312 312 311 311 311 311 311 311 310 310 310 310 310 310 312 312 306 298 303 307 314 318 311 310 308 307 305 305 301 296 292 294 294 296 301 301 304 305 303 305 307 310 318 328
312 312 312 312 311 311 311 311 311 310 310 310 310 310 310 312 304 299 307 314 316 318 312 308 305 307 303 303 303 300 294 294 298 299 298 300 300 301 302 302 303 304 312 326 329
311 311 311 311 311 311 311 311 311 310 309 309 309 309 310 309 296 294 323 321 323 319 308 310 308 305 300 301 301 300 295 297 299 300 301 300 300 303 302 301 304 304 306 320 326
309 310 311 310 310 310 311 311 310 310 309 309 309 309 310 304 285 304 315 320 321 316 309 305 305 301 299 297 302 296 299 300 300 302 302 300 303 301 303 304 308 307 308 314 322
308 309 310 310 310 309 310 311 310 309 309 308 309 309 302 294 294 303 311 306 314 313 304 300 299 298 295 295 298 297 299 300 302 302 302 302 301 301 301 305 308 307 307 307 314
308 308 308 309 309 309 309 310 310 309 308 308 308 308 299 286 301 303 301 301 299 308 304 302 300 301 297 295 294 296 297 299 301 301 301 300 301 301 302 307 306 306 307 308 307
307 308 308 308 308 308 308 309 309 309 308 308 308 303 295 291 303 303 301 300 301 299 303 306 304 299 298 295 299 297 294 296 297 298 299 301 297 298 305 306 305 306 307 307 307
307 306 307 307 307 307 308 308 308 308 308 308 307 301 290 301 304 301 302 301 303 302 299 299 300 302 300 301 297 296 296 291 297 299 300 300 294 301 304 303 303 304 305 305 306
306 306 306 307 307 307 308 307 306 308 309 308 301 296 288 303 299 303 303 298 300 300 299 299 300 296 296 293 291 292 289 290 293 299 300 298 295 300 303 302 302 302 303 304 305
305 305 305 306 306 306 306 305 305 306 304 304 300 291 293 290 300 303 305 302 298 296 294 294 293 292 292 289 283 286 287 290 292 297 297 297 296 299 302 300 300 302 303 303 304
304 304 304 304 304 305 302 296 291 289 294 290 290 290 293 300 304 302 302 300 299 294 286 291 287 285 289 291 291 291 289 290 293 296 295 296 296 297 299 300 300 301 301 302 303
304 304 304 304 304 303 297 291 291 293 283 292 292 292 296 298 292 297 302 296 294 287 290 288 284 290 291 291 290 290 289 289 292 295 294 294 293 296 296 297 298 299 299 301 304
303 304 303 303 303 296 293 292 299 296 285 287 291 292 293 296 290 292 297 296 292 289 287 286 289 292 289 288 287 289 288 288 288 291 291 289 288 290 294 295 296 298 301 303 304
303 303 303 304 296 294 291 297 298 297 279 282 288 293 295 296 289 297 298 294 292 289 288 287 291 289 287 286 288 284 290 290 289 287 283 289 281 288 293 294 297 299 301 302 308
302 302 302 303 295 291 295 297 299 293 269 285 289 298 296 290 291 292 298 294 288 290 291 288 290 289 286 286 289 286 290 289 289 286 284 285 284 288 291 292 295 299 303 307 308
302 302 302 298 295 296 296 296 295 276 270 283 290 288 288 290 291 292 293 295 293 290 289 290 292 292 291 291 290 291 288 288 287 285 280 284 285 286 290 293 297 302 305 306 307
302 302 300 300 292 296 296 292 276 272 284 281 283 287 288 287 289 289 287 286 283 281 282 285 287 290 292 288 290 291 288 281 280 279 280 286 283 288 294 297 301 302 304 305 306
302 300 296 296 296 296 293 283 272 280 279 285 285 287 284 288 288 290 286 285 291 287 281 279 277 286 290 290 287 287 288 283 276 278 281 286 282 289 297 302 303 303 304 305 306
299 293 291 293 295 294 286 274 275 280 283 281 283 281 282 285 287 289 288 287 289 291 283 281 281 288 289 291 291 286 283 290 284 285 281 285 289 293 300 300 301 301 302 304 306
292 289 288 293 295 289 278 276 280 285 285 284 278 282 279 282 284 286 287 289 288 291 293 287 282 289 290 291 290 289 291 284 285 277 276 282 284 286 293 295 300 300 302 303 305
288 284 291 295 295 283 273 277 281 285 286 282 281 280 283 281 283 284 284 288 290 289 293 289 287 286 290 287 285 286 285 287 287 285 279 278 283 292 295 298 299 301 303 303 305
286 278 290 295 281 281 278 281 285 283 286 285 285 285 283 283 282 283 283 287 292 292 287 290 287 283 285 291 295 290 287 287 282 281 284 283 283 298 298 300 301 302 304 305 306
283 283 290 291 275 278 283 282 285 284 284 285 283 285 286 283 280 284 285 291 293 291 289 290 285 282 283 289 291 289 290 289 288 287 283 281 284 297 300 300 302 303 305 305 305
282 275 281 287 286 281 280 280 281 286 285 287 285 286 284 282 285 282 284 290 292 292 295 293 286 283 280 282 286 285 287 289 289 284 284 285 287 293 297 299 302 304 306 306 306
286 279 281 275 282 282 282 282 281 281 286 287 284 283 283 280 282 282 286 287 289 293 292 290 283 285 286 287 287 287 287 287 286 286 284 286 287 291 296 299 301 303 304 303 302
279 280 282 281 282 281 281 280 280 281 282 283 281 282 283 281 283 281 284 285 285 290 289 289 283 284 283 287 287 284 287 288 289 288 289 289 288 297 300 301 298 298 299 298 298
287 286 285 281 280 279 280 281 282 283 284 286 284 282 282 285 289 290 290 289 289 286 286 287 285 283 279 285 284 280 285 287 288 291 291 286 291 297 296 295 294 295 295 295 294

GFSSW_sfc_thetae_108.txt.gz
Theta_e
312 312 312 312 312 311 311 311 311 311 311 311 310 310 311 311 311 307 300 307 310 316 314 310 314 311 312 309 310 310 300 298 301 300 303 305 304 308 310 309 309 311 312 318 329
310 311 311 311 311 311 311 311 311 311 310 310 310 310 310 311 306 301 311 315 317 316 306 307 305 309 306 307 307 304 300 301 306 306 303 304 305 307 306 307 308 309 314 321 327
309 309 310 311 310 310 310 310 310 310 310 310 309 309 311 309 298 299 318 321 321 320 309 309 306 307 304 306 306 304 299 305 306 306 307 305 305 308 305 304 308 308 310 313 320
308 309 309 310 310 310 310 311 310 310 310 309 309 309 310 304 288 306 312 311 317 313 309 305 306 304 301 301 305 300 304 305 306 306 305 303 307 305 306 307 311 312 313 314 314
308 308 309 309 309 309 309 310 309 309 309 309 309 309 305 297 297 305 314 310 306 310 305 303 301 301 298 301 303 302 303 305 306 305 305 306 304 304 306 310 312 312 312 313 314
308 308 308 308 308 308 307 308 309 308 308 309 309 308 301 290 305 306 305 304 303 310 304 304 302 304 301 300 299 303 303 304 305 305 305 303 304 305 307 310 310 311 312 313 314
307 307 307 307 307 307 307 307 308 308 308 309 309 306 297 294 305 306 305 303 303 304 304 306 305 303 302 299 303 301 298 300 301 302 301 304 300 301 306 308 308 309 310 312 314
306 306 306 306 306 306 306 307 306 307 307 308 308 305 293 304 306 304 305 303 304 304 303 306 304 303 303 304 301 297 298 294 301 303 302 302 297 305 309 309 308 310 312 312 314
305 305 305 306 306 307 307 306 306 306 307 309 305 300 292 304 299 303 304 299 301 302 303 302 301 301 301 297 294 297 292 295 298 303 302 301 299 306 309 308 307 309 310 311 312
304 305 305 305 305 305 305 306 306 305 305 306 303 292 297 294 300 305 309 304 301 300 297 296 296 293 296 294 288 291 293 295 295 300 301 300 300 305 307 307 307 308 310 311 311
304 304 304 304 304 305 303 301 295 294 295 290 291 292 295 298 302 301 307 304 302 298 290 293 289 288 292 295 295 295 293 291 295 299 299 299 300 303 307 307 306 308 309 310 311
304 304 304 304 304 303 302 295 292 294 286 293 293 293 295 296 290 296 304 299 297 291 293 290 287 293 295 294 292 290 288 290 293 297 297 297 297 302 303 304 305 305 306 307 308
303 303 303 303 304 301 298 296 301 300 288 289 293 293 294 295 290 292 299 299 295 292 291 288 290 293 292 291 290 291 289 288 288 293 296 295 293 296 300 301 302 303 304 305 306
303 302 302 303 299 300 297 301 303 302 282 285 291 295 296 295 291 298 299 298 297 292 291 291 294 291 290 289 290 287 293 291 290 289 286 294 286 293 296 298 301 303 305 307 310
302 303 303 302 300 297 299 303 303 297 273 289 289 302 296 292 294 294 299 296 292 293 293 290 290 290 290 290 291 289 293 290 290 289 288 289 286 291 296 295 299 303 306 311 313
302 303 302 302 302 301 303 302 299 283 273 284 288 287 290 293 293 295 295 297 296 293 295 293 298 295 293 293 293 293 290 290 290 288 282 288 287 289 294 297 300 305 309 310 312
302 303 301 302 296 303 303 297 283 277 287 282 283 286 287 290 290 291 290 289 287 284 286 290 292 295 297 291 293 291 289 284 282 282 282 291 288 291 296 300 302 305 307 309 311
302 300 300 302 302 302 299 290 276 281 281 287 285 285 284 288 290 290 289 288 292 290 286 284 282 291 295 294 290 289 289 284 277 281 284 290 284 290 298 304 306 306 307 308 310
301 302 301 301 303 302 291 283 279 282 284 282 284 281 283 286 287 289 288 288 291 293 286 284 284 291 293 295 294 290 287 293 287 288 285 288 291 297 302 303 304 305 305 307 309
298 298 297 303 304 297 288 278 282 286 286 285 280 283 280 282 283 286 287 289 290 293 296 290 284 289 291 293 293 292 294 285 288 279 278 284 287 289 296 299 302 303 304 306 309
297 291 297 303 302 292 281 280 282 287 289 285 283 282 283 282 284 284 285 289 292 292 296 294 290 288 291 289 286 287 288 289 289 288 281 281 286 297 297 300 300 302 305 307 310
295 287 298 302 290 290 284 284 286 287 290 288 288 286 284 285 284 284 283 287 292 292 290 293 291 286 288 295 295 291 288 290 284 283 286 286 286 300 301 302 303 304 307 310 311
291 291 299 298 284 283 286 285 286 286 287 287 286 288 289 285 282 286 287 292 293 293 290 292 289 283 285 290 294 291 293 292 292 291 287 285 288 302 302 303 305 305 307 308 309
292 285 291 295 292 285 283 284 284 289 288 289 287 289 287 286 288 285 287 291 293 294 294 295 289 285 282 286 290 288 291 293 292 287 287 288 290 296 298 300 303 305 305 303 304
292 286 287 284 287 285 285 284 283 283 287 289 286 286 284 281 285 284 288 289 291 294 293 292 286 288 289 290 290 290 290 291 290 291 287 289 290 295 298 301 301 301 300 301 300
287 288 289 287 285 284 284 283 281 284 284 284 285 286 286 283 285 284 287 288 287 291 290 292 286 286 285 289 289 288 290 291 291 291 291 291 291 299 301 299 297 298 298 296 296
295 294 290 285 284 284 284 283 283 285 286 287 286 285 285 288 291 292 293 293 292 290 287 287 287 285 282 287 287 283 288 290 292 293 293 289 294 297 296 295 293 295 295 293 292

GFSSW_sfc_thetae_111.txt.gz
Theta_e
311 312 312 312 311 311 311 311 311 311 311 311 311 311 311 311 311 309 303 310 310 317 311 307 311 312 312 310 313 313 302 300 303 304 306 311 306 311 312 309 311 314 315 320 326
309 310 310 311 311 311 311 311 310 311 311 311 310 310 311 311 307 303 316 321 321 318 307 303 305 308 307 309 310 307 303 302 309 310 308 310 308 309 308 308 309 311 316 320 324
308 308 309 309 309 310 310 310 310 310 310 310 310 310 311 309 301 303 314 314 318 322 315 310 308 307 304 308 308 307 302 308 309 311 311 310 309 310 308 307 309 310 313 316 319
309 309 309 309 310 309 309 309 309 309 309 309 310 310 311 307 290 309 312 309 309 313 314 309 307 303 302 302 308 304 307 308 308 310 310 307 310 309 309 309 313 313 315 315 315
308 308 308 308 308 308 308 308 308 308 308 309 309 310 307 299 299 309 317 315 308 307 307 307 304 304 301 304 306 304 306 308 309 309 309 309 307 307 308 312 313 314 314 314 315
307 307 307 307 307 308 307 308 308 308 308 309 309 309 303 293 307 309 308 306 305 304 302 305 304 306 303 304 304 307 307 307 308 308 308 306 306 307 309 312 311 312 313 314 314
306 306 306 306 306 306 306 307 308 307 307 307 308 307 300 297 307 308 307 305 306 305 304 308 306 304 304 301 306 304 301 303 305 306 306 308 303 304 310 311 310 310 313 314 315
305 305 306 306 306 306 306 306 307 306 307 307 308 305 296 307 309 305 306 304 306 306 304 307 308 304 303 306 303 300 300 295 302 304 305 303 298 306 312 311 309 310 311 313 314
305 305 305 305 306 306 306 306 307 307 308 308 306 302 295 308 301 305 305 301 303 304 304 304 304 302 301 297 296 299 293 296 299 305 304 302 299 305 310 310 309 311 313 314 315
304 305 305 305 306 306 306 306 307 308 306 305 304 297 299 295 300 303 306 306 301 300 299 298 297 294 295 295 289 293 294 297 298 303 304 302 300 305 308 309 309 311 312 313 314
304 304 304 304 305 305 305 304 298 297 299 292 292 292 294 300 302 299 301 300 303 297 291 295 290 288 292 295 298 297 295 295 299 303 302 301 301 303 306 308 309 310 311 312 313
303 304 304 304 304 304 305 297 296 296 287 295 296 296 301 303 297 298 299 291 294 293 294 292 287 293 296 296 296 296 294 294 299 300 299 299 299 303 305 307 309 309 310 311 313
303 303 303 303 303 304 301 299 304 300 289 292 297 297 297 300 294 294 296 292 289 293 293 289 291 295 295 294 293 294 293 293 293 296 296 296 295 298 302 304 306 309 309 310 310
302 303 303 304 300 302 300 303 305 303 286 289 293 295 298 296 293 300 298 295 292 291 294 292 295 293 292 292 294 290 296 294 292 290 285 295 287 295 299 299 303 305 306 307 308
302 302 303 303 302 299 301 305 305 297 277 291 292 299 297 294 296 293 300 297 290 292 292 291 292 292 291 292 295 292 296 293 293 290 290 291 289 294 299 297 300 303 305 308 310
302 303 303 304 305 304 306 305 302 283 277 287 291 290 290 294 296 297 296 298 298 292 293 293 298 296 294 295 296 296 292 292 292 290 284 290 289 290 292 297 300 303 306 310 312
302 303 302 304 299 306 306 300 286 280 289 284 285 290 289 288 290 293 291 289 288 286 285 292 293 296 298 294 296 294 290 281 279 281 282 291 288 291 297 299 302 304 307 310 312
302 302 302 304 306 307 302 292 279 284 285 288 287 288 285 287 289 291 290 287 291 290 287 285 283 293 298 294 291 291 290 284 278 279 282 291 286 292 299 302 306 307 308 309 310
301 304 304 305 307 304 295 284 283 284 286 285 287 284 285 286 285 287 290 290 292 294 287 285 286 296 297 297 296 291 288 294 287 290 286 289 292 298 300 302 305 305 305 307 308
301 300 300 305 307 301 292 281 284 287 288 288 282 285 282 283 284 284 288 290 289 294 298 292 284 292 294 297 297 294 295 287 288 279 279 286 288 290 296 299 302 302 303 305 308
300 294 300 305 306 297 286 284 286 290 290 287 285 285 285 283 285 284 285 290 292 293 297 295 291 288 292 289 289 290 290 291 290 288 282 281 286 298 297 300 301 303 305 306 308
299 292 301 304 293 294 288 287 289 289 291 290 290 288 287 287 285 285 285 287 292 294 289 294 292 286 289 295 296 293 291 292 286 284 287 286 286 301 302 302 302 303 305 308 311
295 294 302 302 288 289 289 288 289 289 289 288 287 289 290 287 284 286 288 293 294 293 290 292 290 283 286 292 294 290 291 292 292 291 286 283 286 301 303 303 304 305 307 309 308
294 288 295 298 294 288 286 286 286 291 290 290 289 290 288 286 289 286 287 291 294 294 295 295 290 286 283 286 291 289 290 291 291 286 287 288 290 297 300 300 302 304 304 304 305
295 289 291 288 290 288 288 287 285 285 290 291 288 289 287 284 286 286 289 290 292 295 294 293 287 289 289 290 292 290 291 292 290 291 287 290 291 295 299 301 300 300 300 300 299
286 291 293 292 287 286 286 286 285 287 287 286 286 288 288 286 287 285 288 289 288 293 292 292 287 289 287 290 291 289 291 292 292 292 291 292 291 302 302 301 298 297 298 296 295
298 298 293 288 287 287 287 285 286 288 288 289 288 287 287 289 292 293 294 294 293 290 289 289 287 287 283 288 288 285 290 291 292 293 293 289 295 300 296 295 293 294 293 292 292

GFSSW_sfc_thetae_114.txt.gz
Theta_e
310 310 311 311 311 311 311 311 311 311 311 311 311 311 311 313 311 307 302 309 310 318 313 307 305 309 310 310 313 313 302 299 300 301 304 310 309 310 312 309 310 313 313 322 328
308 309 310 310 310 310 311 311 311 310 311 310 311 311 312 312 306 303 316 323 320 317 305 303 301 304 304 306 308 306 302 300 306 307 307 309 310 310 308 307 308 310 316 321 324
308 308 309 309 310 310 310 309 309 309 309 309 309 310 312 310 302 305 316 315 318 315 314 309 306 303 301 305 305 304 300 305 307 309 310 309 309 312 307 305 309 309 312 316 319
308 308 308 309 308 308 308 308 308 308 309 309 309 310 311 306 290 308 314 313 312 309 309 311 307 302 298 299 304 300 306 307 307 309 309 308 310 308 309 308 313 313 315 315 315
307 307 307 308 308 308 308 308 308 308 308 308 309 309 305 297 298 308 318 316 309 306 303 305 304 302 298 301 302 302 304 307 309 309 309 310 307 307 308 312 314 314 314 315 315
306 307 306 306 307 307 307 307 306 306 307 308 308 308 300 291 305 307 306 306 305 304 301 301 300 304 302 302 301 303 304 306 308 308 309 306 307 308 309 312 311 312 311 312 313
305 305 306 306 306 306 306 306 307 306 307 308 308 305 297 294 305 307 306 304 305 304 300 303 302 299 302 300 304 304 300 304 305 307 306 308 303 303 309 311 309 310 311 312 313
305 305 305 306 306 306 305 306 307 306 307 308 308 303 294 306 308 305 306 304 305 305 303 304 305 301 300 302 301 298 299 294 302 304 305 305 298 306 310 309 308 309 310 312 313
304 305 305 305 306 306 306 306 307 307 308 310 304 303 296 309 301 302 302 300 303 304 303 304 302 299 300 294 293 296 292 294 297 303 303 302 298 305 309 309 308 309 310 311 312
305 305 305 305 306 306 306 306 308 309 308 305 303 296 299 295 300 304 305 302 298 298 299 298 295 292 293 293 285 290 291 294 295 300 302 300 299 303 306 306 306 309 311 311 311
304 304 304 304 304 305 304 304 297 297 298 292 292 292 294 300 305 301 304 302 299 295 288 295 289 286 288 294 296 294 294 294 298 302 300 300 300 302 306 306 306 309 310 311 313
303 304 304 304 304 304 305 298 297 297 289 296 296 296 299 302 295 299 304 296 295 287 290 289 287 290 292 293 292 293 292 294 299 302 299 299 299 303 305 306 306 308 309 310 312
303 303 303 304 304 304 302 300 304 303 290 293 298 297 298 299 294 297 300 297 291 287 286 284 290 292 291 289 290 291 291 293 294 296 296 297 295 296 303 306 307 309 311 311 311
303 302 303 304 301 303 300 303 305 304 285 290 293 295 297 298 294 302 301 295 289 285 288 289 294 290 289 288 290 289 295 295 295 292 286 296 284 293 298 300 303 304 306 309 311
302 303 303 303 302 300 301 305 305 300 276 291 292 300 297 295 295 297 303 293 288 288 289 287 291 290 288 288 292 291 296 295 294 291 289 290 286 291 296 296 299 303 305 307 308
302 302 303 304 303 305 305 305 301 285 277 287 292 290 290 294 294 297 298 301 295 290 291 290 296 295 292 294 294 296 294 294 293 290 282 287 287 288 293 297 299 302 304 307 310
303 303 302 303 300 306 306 300 285 280 289 285 285 289 289 288 290 292 292 291 285 283 284 288 293 297 297 291 294 294 290 282 280 280 280 290 287 290 297 300 301 302 303 310 312
303 303 305 303 306 306 302 292 280 285 284 288 287 288 286 288 288 289 290 288 290 288 285 281 281 291 297 293 290 291 289 283 276 278 281 289 285 290 299 301 303 305 309 310 310
302 303 303 307 307 305 295 284 281 283 286 285 287 284 285 287 288 288 286 288 291 293 286 285 285 294 296 297 295 290 287 293 287 289 285 287 290 297 299 300 303 305 307 306 308
299 300 300 304 306 302 292 283 284 288 289 288 282 286 282 284 284 287 286 289 289 293 296 291 285 293 293 297 296 293 295 286 287 279 279 285 287 288 294 298 302 303 304 306 308
299 295 302 305 305 296 286 285 287 290 290 287 285 284 285 284 286 286 286 289 291 292 296 293 289 289 294 291 290 291 289 290 290 288 281 280 284 297 297 300 299 302 305 307 309
300 292 302 304 292 293 288 287 289 289 292 290 290 288 286 287 286 285 285 288 293 294 289 293 290 284 288 294 295 294 291 291 285 283 286 286 285 300 301 302 303 305 308 308 308
295 294 302 302 288 288 290 288 290 288 290 289 288 289 290 287 283 287 288 292 294 293 290 292 287 281 285 291 293 289 290 291 292 291 285 283 285 300 301 299 305 304 304 304 303
295 289 295 296 293 288 287 286 286 292 289 290 289 291 289 286 289 286 287 291 294 294 297 296 289 285 280 284 290 288 288 290 289 286 286 287 289 296 298 299 300 300 301 300 300
296 291 292 288 289 288 288 287 286 285 290 291 288 288 286 283 285 285 288 289 291 295 294 293 285 287 288 289 287 290 290 291 287 289 286 289 290 295 297 296 298 299 299 298 297
287 293 294 291 289 287 285 286 285 287 287 286 286 287 288 285 286 284 287 287 286 290 290 292 285 288 286 289 290 287 290 290 290 291 291 291 291 298 299 299 296 295 295 294 294
297 298 293 290 289 287 287 286 286 287 288 290 288 287 286 289 291 292 293 293 291 289 288 289 287 285 282 288 288 284 289 290 291 293 292 288 294 298 294 293 292 292 292 291 291

GFSSW_sfc_thetae_117.txt.gz
Theta_e
309 310 310 310 310 310 311 311 311 311 311 311 310 310 310 312 311 305 299 306 308 319 316 305 303 301 301 299 301 304 297 294 295 296 299 305 304 307 307 303 304 308 307 321 328
307 308 309 309 310 310 310 310 309 309 309 310 310 310 311 312 304 300 313 322 320 319 302 299 298 299 294 297 298 298 295 296 300 302 302 305 305 305 300 301 303 307 318 320 326
308 308 309 309 309 309 309 309 309 309 309 309 309 309 311 309 299 302 316 316 318 314 307 307 306 298 293 295 296 298 295 301 303 305 305 303 304 307 300 298 303 304 312 316 317
308 308 308 308 308 308 308 308 308 308 309 308 308 309 309 303 287 301 314 315 315 308 303 302 305 297 293 291 295 294 299 301 302 304 304 303 304 303 300 303 307 307 311 314 315
307 307 307 308 307 307 307 307 307 308 307 307 308 308 302 295 295 304 319 314 310 305 301 298 295 296 295 296 296 294 297 300 303 304 304 306 303 303 304 307 309 309 309 308 311
306 306 306 306 307 307 307 307 307 307 307 307 308 307 297 287 301 304 304 303 302 300 298 298 296 296 292 293 296 298 298 299 301 302 303 303 303 301 305 307 308 308 304 304 309
306 306 306 306 306 307 306 306 306 306 307 308 308 304 295 291 301 302 303 301 302 301 297 299 299 295 293 290 297 299 295 298 300 300 300 303 299 300 304 306 305 305 305 305 306
305 305 306 306 306 306 306 307 307 307 308 309 308 300 291 304 302 303 299 298 300 302 301 301 301 296 293 295 292 289 291 288 296 300 301 300 294 303 305 304 303 303 303 305 306
305 305 305 305 305 306 306 307 307 308 309 309 302 298 293 308 300 299 301 300 301 300 299 301 300 293 292 287 286 286 283 286 291 298 299 298 295 302 304 305 304 305 305 305 306
305 305 305 305 305 306 306 307 307 308 307 306 302 291 295 293 297 300 302 302 299 298 296 293 291 289 288 284 278 282 283 285 288 294 297 296 296 298 301 302 303 304 305 306 307
304 304 304 304 305 306 302 298 292 293 293 290 290 290 292 297 301 298 301 299 298 295 288 291 283 282 286 287 287 286 286 286 290 296 295 295 296 298 299 301 300 301 302 303 306
303 303 304 304 305 306 300 292 293 293 285 295 295 295 297 298 292 296 300 294 292 287 290 288 282 286 289 291 288 285 284 286 292 296 296 295 295 298 299 299 302 301 300 302 304
302 303 303 304 304 301 296 295 300 298 285 291 296 295 296 297 292 293 298 294 288 287 287 285 286 290 287 287 286 284 283 285 287 292 296 293 291 294 299 299 301 303 303 304 305
303 303 303 305 300 297 294 299 300 298 278 289 291 294 295 295 293 299 301 292 289 284 286 284 288 286 285 284 287 281 287 287 288 287 286 294 281 291 297 296 297 299 299 301 305
302 303 303 303 296 295 297 300 299 295 273 290 291 298 294 292 292 294 301 293 286 286 286 284 288 287 285 286 290 284 288 287 288 288 288 289 285 286 292 291 295 297 300 301 304
303 303 303 301 297 299 301 300 297 282 274 285 289 287 287 291 291 294 295 298 296 288 289 287 293 291 289 292 291 290 287 288 291 289 280 285 284 283 287 291 295 298 302 304 303
303 303 301 301 294 301 300 294 281 276 287 282 283 287 287 286 288 290 289 289 285 281 282 287 288 293 295 291 293 288 284 280 279 279 277 287 284 286 292 296 297 298 301 305 306
303 303 301 301 300 299 296 286 276 282 281 286 286 287 283 287 287 288 288 285 290 288 284 281 280 289 294 291 287 286 287 279 274 275 278 287 281 285 294 297 299 301 305 305 305
303 297 297 300 301 299 290 275 277 281 285 284 286 282 282 286 284 286 285 285 288 290 284 283 283 292 294 295 293 287 284 289 284 286 281 283 286 292 296 298 301 303 303 302 306
294 295 296 300 300 296 283 282 283 288 288 287 281 284 279 282 282 278 285 287 287 291 294 289 282 290 293 296 294 290 291 283 286 278 278 284 284 286 293 297 301 301 303 305 306
293 290 297 299 299 290 275 282 287 289 290 286 284 283 283 282 283 283 283 287 289 291 292 290 288 286 290 290 288 288 286 289 288 286 279 279 283 296 296 298 300 302 303 303 302
292 286 297 298 284 286 279 287 290 288 292 289 289 286 285 285 283 284 284 287 290 291 286 292 286 282 285 292 294 293 289 289 282 282 284 283 283 299 300 302 303 302 302 301 300
290 289 297 296 280 281 288 288 290 288 288 288 287 289 289 284 281 285 287 292 291 290 289 290 285 278 282 287 292 289 290 291 290 289 283 280 285 300 299 299 299 297 298 298 298
289 282 288 290 289 284 284 286 285 291 289 289 289 290 286 284 286 284 286 289 291 290 296 294 288 283 277 281 286 284 289 292 289 283 284 286 289 292 296 295 296 296 296 295 295
289 284 286 280 283 284 285 286 284 285 290 289 287 286 284 280 282 283 285 286 289 292 290 288 283 286 287 289 287 287 289 289 287 288 284 288 290 292 292 293 294 294 293 292 292
280 284 288 286 287 284 285 284 285 285 285 284 284 285 285 281 284 281 284 284 284 288 287 289 283 286 284 289 288 287 289 289 290 290 290 291 291 296 296 295 291 291 291 289 289
292 293 287 287 284 282 284 286 286 288 288 289 286 284 283 287 288 289 289 289 288 286 285 285 284 283 281 287 287 284 287 289 289 291 292 287 291 293 290 289 289 289 288 288 288